Change the Weather History Date:

Friday, February 15, 2013

  Actual Average Record
Temperature  
Mean Temperature 4 °F -  
Max Temperature 14 °F 17 °F 42 °F (1981)
Min Temperature -7 °F -6 °F -31 °F (2008)
Degree Days  
Heating Degree Days 62    
Moisture  
Dew Point -2 °F    
Average Humidity 77    
Maximum Humidity 85    
Minimum Humidity 62    
Precipitation  
Precipitation 0.00 in - - ()
Sea Level Pressure  
Sea Level Pressure 30.23 in    
Wind  
Wind Speed 6 mph (WNW)    
Max Wind Speed 12 mph    
Max Gust Speed 17 mph    
Visibility 9 miles    
Events Snow    
Averages and records for this station are not official NWS values.
T = Trace of Precipitation, MM = Missing Value Source: NWS Daily Summary

Daily Weather History Graph

Daily Weather History Graph

Search for Another Location

Airport or City:

Trip Planner

Search our weather history database for the weather conditions in past years. The results will help you decide how hot, cold, wet, or windy it might be!

Date:

Astronomy

Feb. 15, 2013 Rise Set
Actual Time 7:29 AM CST 5:42 PM CST
Civil Twilight 6:56 AM CST 6:15 PM CST
Nautical Twilight 6:19 AM CST 6:52 PM CST
Astronomical Twilight 5:43 AM CST 7:28 PM CST
Moon 9:32 AM CST (2/15) No Moon Set
Length of Visible Light 11h 18m
Length of Day
10h 13m
Waxing Crescent, 30% of the Moon is Illuminated
Feb 15
Waxing Crescent
Feb 17
First Quarter
Feb 25
Full
Mar 4
Last Quarter
Mar 11
New

Hourly Weather History & Observations

Time (CST) Temp. Windchill Dew Point Humidity Pressure Visibility Wind Dir Wind Speed Gust Speed Precip Events Conditions
12:14 AM 1.4 °F -8.3 °F -2.2 °F 85% 30.19 in 7.0 mi West 4.6 mph - N/A   Overcast
12:34 AM 1.4 °F -9.9 °F -2.2 °F 85% 30.19 in 7.0 mi West 5.8 mph - N/A   Mostly Cloudy
12:54 AM 3.2 °F -9.1 °F -2.2 °F 78% 30.20 in 10.0 mi West 6.9 mph - N/A   Scattered Clouds
1:14 AM 1.4 °F -9.9 °F -2.2 °F 85% 30.20 in 10.0 mi WNW 5.8 mph - N/A   Clear
1:34 AM 1.4 °F -12.5 °F -2.2 °F 85% 30.20 in 10.0 mi WNW 8.1 mph - N/A   Clear
1:54 AM 1.4 °F -11.3 °F -2.2 °F 85% 30.20 in 10.0 mi WNW 6.9 mph - N/A   Clear
2:14 AM 1.4 °F -11.3 °F -4.0 °F 78% 30.21 in 10.0 mi WNW 6.9 mph - N/A   Clear
2:34 AM -0.4 °F -15.7 °F -5.8 °F 78% 30.21 in 10.0 mi NW 9.2 mph - N/A   Clear
2:54 AM -0.4 °F -14.7 °F -7.6 °F 72% 30.21 in 10.0 mi NW 8.1 mph - N/A   Clear
3:14 AM -0.4 °F -14.7 °F -7.6 °F 72% 30.21 in 10.0 mi WNW 8.1 mph - N/A   Clear
3:34 AM -2.2 °F -15.6 °F -7.6 °F 78% 30.22 in 10.0 mi WNW 6.9 mph - N/A   Clear
3:54 AM -2.2 °F -14.2 °F -7.6 °F 78% 30.22 in 10.0 mi WNW 5.8 mph - N/A   Clear
4:14 AM -2.2 °F -15.6 °F -7.6 °F 78% 30.22 in 10.0 mi WNW 6.9 mph - N/A   Clear
4:34 AM -4.0 °F -16.3 °F -9.4 °F 78% 30.22 in 10.0 mi WNW 5.8 mph - N/A   Clear
4:54 AM -4.0 °F -19.0 °F -9.4 °F 78% 30.23 in 10.0 mi WNW 8.1 mph - N/A   Clear
5:14 AM -4.0 °F -16.3 °F -9.4 °F 78% 30.23 in 10.0 mi WNW 5.8 mph - N/A   Clear
5:34 AM -4.0 °F -16.3 °F -7.6 °F 85% 30.23 in 10.0 mi West 5.8 mph - N/A   Mostly Cloudy
5:54 AM -4.0 °F -17.8 °F -9.4 °F 78% 30.24 in 10.0 mi West 6.9 mph - N/A   Scattered Clouds
6:14 AM -4.0 °F -19.0 °F -9.4 °F 78% 30.25 in 10.0 mi WNW 8.1 mph - N/A   Clear
6:34 AM -5.8 °F -16.7 °F -9.4 °F 84% 30.25 in 10.0 mi West 4.6 mph - N/A   Clear
6:54 AM -5.8 °F -16.7 °F -9.4 °F 84% 30.25 in 10.0 mi West 4.6 mph - N/A   Scattered Clouds
7:14 AM -7.6 °F -16.5 °F -11.2 °F 84% 30.25 in 10.0 mi West 3.5 mph - N/A   Mostly Cloudy
7:34 AM -7.6 °F -16.5 °F -11.2 °F 84% 30.26 in 10.0 mi West 3.5 mph - N/A   Overcast
7:54 AM -7.6 °F -16.5 °F -13.0 °F 77% 30.26 in 10.0 mi West 3.5 mph - N/A   Overcast
8:14 AM -7.6 °F -16.5 °F -11.2 °F 84% 30.27 in 10.0 mi West 3.5 mph - N/A   Mostly Cloudy
8:33 AM -5.8 °F -14.5 °F -9.4 °F 84% 30.27 in 10.0 mi West 3.5 mph - N/A   Overcast
8:54 AM -4.0 °F -17.8 °F -9.4 °F 78% 30.28 in 10.0 mi WNW 6.9 mph - N/A   Mostly Cloudy
9:14 AM -4.0 °F -17.8 °F -9.4 °F 78% 30.28 in 7.0 mi West 6.9 mph - N/A   Scattered Clouds
9:34 AM -2.2 °F -14.2 °F -7.6 °F 78% 30.29 in 7.0 mi WNW 5.8 mph - N/A   Mostly Cloudy
9:54 AM -0.4 °F -10.4 °F -7.6 °F 72% 30.28 in 7.0 mi West 4.6 mph - N/A   Mostly Cloudy
10:14 AM 1.4 °F -6.2 °F -5.8 °F 72% 30.29 in 4.0 mi West 3.5 mph - N/A   Haze
10:34 AM 1.4 °F - -2.2 °F 85% 30.29 in 3.0 mi Calm Calm - N/A Snow Light Snow
11:14 AM 5.0 °F -6.9 °F -0.4 °F 78% 30.29 in 5.0 mi West 6.9 mph - N/A   Haze
11:54 AM 6.8 °F -3.5 °F -0.4 °F 72% 30.28 in 10.0 mi SW 5.8 mph - N/A   Overcast
12:14 PM 6.8 °F -4.8 °F -0.4 °F 72% 30.27 in 7.0 mi SW 6.9 mph - N/A   Overcast
12:33 PM 8.6 °F -4.7 °F 1.4 °F 73% 30.27 in 7.0 mi West 9.2 mph - N/A   Overcast
12:54 PM 8.6 °F -4.7 °F 1.4 °F 73% 30.26 in 4.0 mi WSW 9.2 mph - N/A   Haze
1:13 PM 10.4 °F -0.4 °F 1.4 °F 67% 30.25 in 7.0 mi SW 6.9 mph - N/A   Overcast
1:34 PM 10.4 °F -1.5 °F 3.2 °F 73% 30.24 in 5.0 mi SW 8.1 mph - N/A   Haze
1:54 PM 10.4 °F 0.8 °F 3.2 °F 73% 30.24 in 3.0 mi SW 5.8 mph - N/A   Haze
2:13 PM 10.4 °F -4.1 °F 5.0 °F 79% 30.23 in 2.5 mi WSW 11.5 mph - N/A Snow Light Snow
2:34 PM 12.2 °F -0.2 °F 5.0 °F 73% 30.23 in 4.0 mi WSW 9.2 mph - N/A Snow Light Snow
2:54 PM 12.2 °F 0.7 °F 6.8 °F 79% 30.22 in 4.0 mi WSW 8.1 mph - N/A Snow Light Snow
3:13 PM 12.2 °F -1.0 °F 6.8 °F 79% 30.22 in 10.0 mi West 10.4 mph - N/A   Overcast
3:34 PM 14.0 °F 0.5 °F 3.2 °F 62% 30.22 in 10.0 mi WNW 11.5 mph - N/A   Overcast
3:54 PM 14.0 °F 1.2 °F 6.8 °F 73% 30.22 in 4.0 mi West 10.4 mph - N/A Snow Light Snow
4:13 PM 14.0 °F 2.9 °F 6.8 °F 73% 30.22 in 10.0 mi WNW 8.1 mph - N/A   Overcast
4:33 PM 12.2 °F -0.2 °F 6.8 °F 79% 30.22 in 3.0 mi West 9.2 mph - N/A Snow Light Snow
4:54 PM 12.2 °F -1.8 °F 6.8 °F 79% 30.22 in 10.0 mi West 11.5 mph 16.1 mph N/A   Overcast
5:14 PM 12.2 °F -1.0 °F 5.0 °F 73% 30.22 in 7.0 mi WNW 10.4 mph 17.3 mph N/A Snow Light Snow
5:33 PM 12.2 °F -1.0 °F 5.0 °F 73% 30.22 in 10.0 mi WNW 10.4 mph - N/A   Overcast
5:54 PM 10.4 °F -4.1 °F 3.2 °F 73% 30.22 in 10.0 mi WNW 11.5 mph - N/A   Overcast
6:14 PM 10.4 °F -1.5 °F 3.2 °F 73% 30.22 in 10.0 mi WNW 8.1 mph - N/A   Overcast
6:34 PM 10.4 °F -1.5 °F 3.2 °F 73% 30.22 in 10.0 mi WNW 8.1 mph - N/A   Overcast
6:54 PM 10.4 °F -0.4 °F 1.4 °F 67% 30.22 in 10.0 mi NW 6.9 mph - N/A   Overcast
7:14 PM 10.4 °F -2.4 °F 1.4 °F 67% 30.22 in 10.0 mi NW 9.2 mph - N/A   Overcast
7:34 PM 10.4 °F -1.5 °F 1.4 °F 67% 30.22 in 10.0 mi WNW 8.1 mph - N/A   Overcast
7:54 PM 8.6 °F -3.7 °F 1.4 °F 73% 30.21 in 10.0 mi WNW 8.1 mph - N/A   Overcast
8:14 PM 8.6 °F 0.1 °F 1.4 °F 73% 30.21 in 10.0 mi WNW 4.6 mph - N/A   Overcast
8:34 PM 8.6 °F -1.3 °F 1.4 °F 73% 30.21 in 10.0 mi WNW 5.8 mph - N/A   Overcast
8:54 PM 8.6 °F -2.6 °F 1.4 °F 73% 30.21 in 10.0 mi NW 6.9 mph - N/A   Overcast
9:14 PM 6.8 °F -0.1 °F 1.4 °F 79% 30.21 in 10.0 mi WNW 3.5 mph - N/A   Overcast
9:34 PM 6.8 °F -0.1 °F -0.4 °F 72% 30.21 in 10.0 mi West 3.5 mph - N/A   Mostly Cloudy
9:54 PM 6.8 °F - -0.4 °F 72% 30.20 in 10.0 mi Calm Calm - N/A   Scattered Clouds
10:13 PM 3.2 °F - -0.4 °F 85% 30.20 in 10.0 mi Calm Calm - N/A   Mostly Cloudy
10:34 PM 1.4 °F - -2.2 °F 85% 30.19 in 10.0 mi Calm Calm - N/A   Overcast
10:54 PM -0.4 °F - -4.0 °F 85% 30.18 in 10.0 mi Calm Calm - N/A   Scattered Clouds
11:13 PM -0.4 °F - -5.8 °F 78% 30.18 in 10.0 mi Calm Calm - N/A   Clear
11:34 PM -2.2 °F - -7.6 °F 78% 30.18 in 10.0 mi Calm Calm - N/A   Scattered Clouds
11:53 PM -2.2 °F - -7.6 °F 78% 30.17 in 10.0 mi Calm Calm - N/A   Unknown